Regional Weather Roundup
Issued by NWS

Home | Current Version | Previous Version | Graphics & Text | Print | Product List | Glossary On
Versions: 1 2 3 4 5 6 7 8 9 10 11 12 13 14 15 16 17 18 19 20 21 22 23 24 25 26 27 28 29 30 31 32 33 34 35 36 37 38 39 40 41 42 43 44 45 46 47 48 49 50
486
ASUS44 KLIX 240110
RWRLA
LOUISIANA WEATHER ROUNDUP
NATIONAL WEATHER SERVICE NEW ORLEANS LA
700 PM CST SUN NOV 23 2014

NOTE: "FAIR" INDICATES FEW OR NO CLOUDS BELOW 12,000 FEET WITH NO
      SIGNIFICANT WEATHER AND/OR OBSTRUCTIONS TO VISIBILITY.
      SKY/WX - SKY CONDITION AND SIGNIFICANT WEATHER.
      TMP - AIR TEMPERATURE.    DP   - DEWPOINT TEMPERATURE.
      RH  - RELATIVE HUMIDITY.  PRES - PRESSURE.
      HX  - HEAT INDEX.         WCI  - WIND CHILL INDEX.

*  THESE STATIONS ARE NOT NWS OR FAA STATIONS AND ARE NOT UNDER
   NWS QUALITY CONTROL.

LAZ040-048-061>063-065-066-069-240200-
SOUTHEAST LOUISIANA

CITY           SKY/WX    TMP DP  RH WIND       PRES   REMARKS
N.O. AUDUBON     N/A     67  64  90 MISG        N/A
N.O. INTL ARPT PTCLDY    67  62  84 S9        29.68S
N.O. LAKEFRONT PTCLDY    68  63  84 S12       29.69S
N.O. DOWNTOWN* FAIR      70  61  73 S8        29.69S
SLIDELL        CLEAR     65  60  84 S7        29.67S
BATON ROUGE    MOCLDY    70  64  81 SW18G26   29.65R
BOOTHVILLE     CLEAR     66  66 100 S10       29.73R
BELLE CHASSE   MOCLDY    67  63  87 S8        29.69S
BOGALUSA*        N/A     66  58  76 S6        29.67R
NEW ROADS*     FAIR      66  62  85 S8        29.63R
GONZALES*      CLOUDY    68  68  99 S6        29.66R
HAMMOND*       CLEAR     64  57  77 S6        29.68R
HOUMA*         CLEAR     68  67  95 S7        29.69R FOG
PORT FOURCHON* CLOUDY    72  68  88 S10G16    29.75R FOG

$$

LAZ041-044-053-054-240200-
SOUTHWEST LOUISIANA

CITY           SKY/WX    TMP DP  RH WIND       PRES   REMARKS
LAKE CHARLES   CLEAR     66  63  90 SW12      29.61R
LAFAYETTE      PTCLDY    69  66  90 S12       29.64R
PATTERSON      CLOUDY    68  66  94 SW10      29.69R
SALT POINT       N/A    N/A N/A N/A VRB3      29.67R
NEW IBERIA     MOCLDY    66  64  93 S12       29.66R
CHENAULT AIRPK NOT AVBL

$$

LAZ027-028-240200-
CENTRAL LOUISIANA

CITY           SKY/WX    TMP DP  RH WIND       PRES   REMARKS
FORT POLK      CLEAR     64  59  84 S8        29.59R
ALEXANDRIA INT CLEAR     64  58  80 S9        29.57R
ALEXANDRIA     CLEAR     65  59  81 SW8G17    29.58R

$$

LAZ001-002-240200-
NORTHWEST LOUISIANA

CITY           SKY/WX    TMP DP  RH WIND       PRES   REMARKS
SHREVEPORT     CLEAR     66  56  70 SW9       29.50R
BARKSDALE AFB  CLEAR     65  55  68 S9        29.50R
DTN SHREVEPORT CLEAR     67  54  63 S14       29.49R

$$

LAZ014-016-240200-
NORTHEAST LOUISIANA

CITY           SKY/WX    TMP DP  RH WIND       PRES   REMARKS
MONROE         CLEAR     64  59  83 S9        29.52R
TALLULAH       CLEAR     66  55  67 S10G20    29.54R

$$




USA.gov is the U.S. government's official web portal to all federal, state and local government web resources and services.